Location: Czekanka
(50.4925°N, 19.2643°E)
Time: 13:37:21
(UTC+00:00)

Cosmos 1943 - Pass Details

Date: 15 June 2024
Orbit: 834 x 847 km, 71.0° (Epoch: 16 July)

Event Time Altitude Azimuth Distance (km) Brightness Sun altitude
Rises 00:02:15 0° 331° (NNW) 3,396 7.0 -14.2°
Reaches altitude 10° 00:04:44 10° 334° (NNW) 2,457 6.3 -14.0°
Maximum altitude 00:10:21 66° 57° (ENE) 913 3.6 -13.7°
Drops below altitude 10° 00:15:55 10° 140° (SE) 2,441 5.3 -13.4°
Sets 00:18:22 0° 143° (SE) 3,372 6.0 -13.3°
